Weather History for Crestview, FL

Change the Weather History Date:

Tuesday, April 9, 2013

  Actual Average Record
Temperature  
Mean Temperature 70 °F -  
Max Temperature 84 °F 78 °F 90 °F (1978)
Min Temperature 57 °F 53 °F 39 °F (1990)
Cooling Degree Days 6    
Growing Degree Days 20 (Base 50)    
Moisture  
Dew Point 56 °F    
Average Humidity 65    
Maximum Humidity 93    
Minimum Humidity 37    
Precipitation  
Precipitation 0.00 in - - ()
Sea Level Pressure  
Sea Level Pressure 30.10 in    
Wind  
Wind Speed 4 mph (SSE)    
Max Wind Speed 14 mph    
Max Gust Speed 22 mph    
Visibility 10 miles    
Events      
Averages and records for this station are not official NWS values.
T = Trace of Precipitation, MM = Missing Value Source: NWS Daily Summary

Daily Weather History Graph

Daily Weather History Graph

Search for Another Location

Airport:

Trip Planner

Search our weather history database for the weather conditions in past years. The results will help you decide how hot, cold, wet, or windy it might be!

Date:

Astronomy

Apr. 09, 2013 Rise Set
Actual Time 6:25 AM CDT 7:10 PM CDT
Civil Twilight 6:00 AM CDT 7:34 PM CDT
Nautical Twilight 5:31 AM CDT 8:03 PM CDT
Astronomical Twilight 5:02 AM CDT 8:33 PM CDT
Moon 5:45 AM CDT (4/9) 6:45 PM CDT (4/9)
Length of Visible Light 13h 34m
Length of Day
12h 45m
Waning Crescent, 1% of the Moon is Illuminated
Apr 9
Waning Crescent
Apr 10
New
Apr 18
First Quarter
Apr 25
Full
May 2
Last Quarter

Hourly Weather History & Observations

Time (CDT) Temp. Heat Index Dew Point Humidity Pressure Visibility Wind Dir Wind Speed Gust Speed Precip Events Conditions
12:53 AM 60.1 °F - 57.0 °F 90% 30.08 in 8.0 mi Calm Calm - N/A   Clear
1:53 AM 57.9 °F - 55.9 °F 93% 30.06 in 8.0 mi Calm Calm - N/A   Clear
2:53 AM 57.9 °F - 55.9 °F 93% 30.04 in 9.0 mi Calm Calm - N/A   Partly Cloudy
3:53 AM 57.0 °F - 54.0 °F 89% 30.03 in 7.0 mi Calm Calm - N/A   Clear
4:53 AM 57.0 °F - 54.0 °F 89% 30.03 in 10.0 mi Calm Calm - N/A   Clear
5:53 AM 60.1 °F - 55.9 °F 86% 30.05 in 10.0 mi Calm Calm - N/A   Clear
6:53 AM 57.9 °F - 55.9 °F 93% 30.08 in 10.0 mi ESE 3.5 mph - N/A   Clear
7:53 AM 66.0 °F - 57.9 °F 75% 30.10 in 10.0 mi ESE 5.8 mph - N/A   Clear
8:53 AM 73.0 °F - 57.0 °F 57% 30.11 in 10.0 mi SE 6.9 mph - N/A   Clear
9:53 AM 79.0 °F - 55.0 °F 44% 30.12 in 10.0 mi ESE 9.2 mph - N/A   Clear
10:53 AM 81.0 °F 80.7 °F 55.0 °F 41% 30.14 in 10.0 mi SSE 10.4 mph 19.6 mph N/A   Clear
11:53 AM 82.0 °F 81.4 °F 55.0 °F 39% 30.14 in 10.0 mi South 12.7 mph 19.6 mph N/A   Mostly Cloudy
12:53 PM 84.0 °F 82.9 °F 55.0 °F 37% 30.14 in 10.0 mi SSE 13.8 mph 21.9 mph N/A   Mostly Cloudy
1:53 PM 82.0 °F 81.2 °F 53.1 °F 37% 30.13 in 10.0 mi SSE 11.5 mph 21.9 mph N/A   Mostly Cloudy
2:53 PM 84.0 °F 82.9 °F 55.0 °F 37% 30.12 in 10.0 mi South 12.7 mph 21.9 mph N/A   Clear
3:53 PM 84.0 °F 83.0 °F 55.9 °F 38% 30.10 in 10.0 mi SSE 10.4 mph 17.3 mph N/A   Clear
4:53 PM 82.0 °F 81.4 °F 55.0 °F 39% 30.09 in 10.0 mi SE 10.4 mph 20.7 mph N/A   Clear
5:53 PM 80.1 °F 80.1 °F 55.0 °F 42% 30.09 in 10.0 mi SSE 10.4 mph 18.4 mph N/A   Clear
6:53 PM 75.9 °F - 57.9 °F 54% 30.10 in 10.0 mi South 4.6 mph - N/A   Clear
7:53 PM 72.0 °F - 60.1 °F 66% 30.11 in 10.0 mi South 3.5 mph - N/A   Clear
8:53 PM 64.9 °F - 59.0 °F 81% 30.12 in 10.0 mi Calm Calm - N/A   Clear
9:53 PM 66.0 °F - 57.0 °F 73% 30.12 in 10.0 mi Calm Calm - N/A   Clear
10:53 PM 60.1 °F - 55.9 °F 86% 30.12 in 10.0 mi Calm Calm - N/A   Clear
11:53 PM 57.9 °F - 55.0 °F 90% 30.10 in 10.0 mi Calm Calm - N/A   Clear